Regional Weather Roundup
Issued by NWS

Home | Current Version | Previous Version | Graphics & Text | Print | Product List | Glossary On
Versions: 1 2 3 4 5 6 7 8 9 10 11 12 13 14 15 16 17 18 19 20 21 22 23 24 25 26 27 28 29 30 31 32 33 34 35 36 37 38 39 40 41 42 43 44 45 46 47 48 49 50
000
ASUS43 KOAX 301802
RWRNE

WEATHER ROUNDUP FOR NEBRASKA
NATIONAL WEATHER SERVICE OMAHA NE
100 PM CDT SAT AUG 30 2014

NOTES: SATELLITE DATA IS BEING USED TO AUGMENT CLOUD COVER ABOVE
       12000 FEET.
       "FAIR" INDICATES FEW OR NO CLOUDS BELOW 12,000 FEET WITH NO
       SIGNIFICANT WEATHER AND/OR OBSTRUCTIONS TO VISIBILITY.

  * THESE STATIONS DO NOT REPORT WEATHER SUCH AS RAIN...SNOW OR FOG.

NEZ001>004-019>022-054>056-301900-
NEBRASKA PANHANDLE

CITY           SKY/WX    TMP DP  RH WIND       PRES   REMARKS
SCOTTSBLUFF    SUNNY     83  55  38 E10       29.91F
6HR MIN TEMP:  55; 6HR MAX TEMP:  83;

ALLIANCE       SUNNY     80  56  43 S20G26    29.93F
6HR MIN TEMP:  51; 6HR MAX TEMP:  80;

CHADRON        SUNNY     84  54  35 S12       29.84F
6HR MIN TEMP:  50; 6HR MAX TEMP:  84;

KIMBALL        SUNNY     83  42  23 SW15      29.97F
SIDNEY         SUNNY     82  52  35 S14       29.98F
6HR MIN TEMP:  54; 6HR MAX TEMP:  82;

$$

NEZ057>060-069>072-079>082-301900-
SOUTHWEST NEBRASKA

CITY           SKY/WX    TMP DP  RH WIND       PRES   REMARKS
NORTH PLATTE   SUNNY     80  61  52 SE8       29.95F
6HR MIN TEMP:  55; 6HR MAX TEMP:  80;

IMPERIAL       SUNNY     79  59  50 SE14      29.96F
6HR MIN TEMP:  55; 6HR MAX TEMP:  79;

LEXINGTON      SUNNY     77  64  64 SE10      29.97F
MCCOOK         SUNNY     80  59  48 S9        29.96F
6HR MIN TEMP:  58; 6HR MAX TEMP:  81;

OGALLALA       SUNNY     77  60  55 S10       29.95F
$$

NEZ005>010-023>029-035>040-094-301900-
NORTH CENTRAL NEBRASKA

CITY           SKY/WX    TMP DP  RH WIND       PRES   REMARKS
VALENTINE      SUNNY     78  60  53 S12       29.92F
6HR MIN TEMP:  53; 6HR MAX TEMP:  78;

AINSWORTH      SUNNY     74  61  64 SE10      29.94F
BROKEN BOW     SUNNY     76  63  64 SE8G25    29.96F
6HR MIN TEMP:  53; 6HR MAX TEMP:  76;

O`NEILL        SUNNY     73  60  63 CALM      29.95F
ORD            SUNNY     74  61  63 SE8       29.95F
6HR MIN TEMP:  55; 6HR MAX TEMP:  75;

THEDFORD       SUNNY     78  60  54 S13G20    29.96F
$$

NEZ041-046>049-061>064-073>077-083>087-301900-
SOUTH CENTRAL NEBRASKA

CITY           SKY/WX    TMP DP  RH WIND       PRES   REMARKS
GRAND ISLAND   SUNNY     78  61  55 S3        29.98F
6HR MIN TEMP:  59; 6HR MAX TEMP:  78;

AURORA         SUNNY     76  62  62 S5        29.98S
HASTINGS       SUNNY     77  62  59 VRB6      29.97F
6HR MIN TEMP:  59; 6HR MAX TEMP:  77;

HEBRON         SUNNY     80  61  52 CALM      29.96F
HOLDREGE       SUNNY     77  64  63 SE9       29.97F
KEARNEY *      SUNNY     77  64  65 SE8       29.98F
YORK           SUNNY     77 N/A N/A E5        29.97S
$$

NEZ011>018-030>034-042>045-301900-
NORTHEAST NEBRASKA

CITY           SKY/WX    TMP DP  RH WIND       PRES   REMARKS
NORFOLK        SUNNY     75  59  57 VRB3      29.95F
6HR MIN TEMP:  61; 6HR MAX TEMP:  75;

ALBION         SUNNY     73  60  63 S5        29.96F
BLAIR          PTSUNNY   75  67  75 CALM      29.94F
FREMONT        SUNNY     78  62  57 W6        29.94F
TEKAMAH        SUNNY     76  64  66 NW7       29.94F
6HR MIN TEMP:  65; 6HR MAX TEMP:  76;

WAYNE          MOSUNNY   72  62  72 N5        29.96F
$$

NEZ050>053-065>068-078-088>093-301900-
SOUTHEAST NEBRASKA

CITY           SKY/WX    TMP DP  RH WIND       PRES   REMARKS
LINCOLN        SUNNY     81  62  52 VRB3      29.95F
6HR MIN TEMP:  64; 6HR MAX TEMP:  81;

OMAHA EPPLEY   MOSUNNY   74  65  73 NW6       29.94F
6HR MIN TEMP:  64; 6HR MAX TEMP:  75;

BEATRICE       SUNNY     80  67  64 CALM      29.95F
FALLS CITY     MOSUNNY   83  69  62 CALM      29.93S
6HR MIN TEMP:  66; 6HR MAX TEMP:  84;

NEBRASKA CITY  MOSUNNY   80  66  63 W6        29.94S
PLATTSMOUTH    CLOUDY    72  66  82 NW3       29.95F
$$

NEZ044-045-051>053-067-301900-
OMAHA AREA

CITY           SKY/WX    TMP DP  RH WIND       PRES   REMARKS
OMAHA EPPLEY   MOSUNNY   74  65  73 NW6       29.94F
6HR MIN TEMP:  64; 6HR MAX TEMP:  75;

BLAIR          PTSUNNY   75  67  75 CALM      29.94F
FREMONT        SUNNY     78  62  57 W6        29.94F
MILLARD        MOSUNNY   74  66  75 CALM      29.94S
OFFUTT AFB     PTSUNNY   73  71  93 VRB5      29.94S
PLATTSMOUTH    CLOUDY    72  66  82 NW3       29.95F
WAHOO          FAIR      78  61  55 NW3       29.94F
$$


USA.gov is the U.S. government's official web portal to all federal, state and local government web resources and services.